sat.trackr.live / text

‹ back to catalog

STARLINK-4787

NORAD 53904 · 2022-119U

PAYLOAD ACTIVE UNKNOWN

§ Identity

Operator
Country
US
Launch date
2022-09-24
Launch site
AFETR
Launch vehicle
Mass (kg)
RCS (m²)

Purposes: comms

External: N2YO · Heavens-Above · Gunter

§ Orbital elements

Epoch: 2026-09-19T22:16:56.284608Z

Period
93.85 min
Inclination
53.1593°
Eccentricity
0.0001074
Mean motion
15.34394206 rev/d
Perigee alt
462.0 km
Apogee alt
463.5 km
Semi-major
6,840.9 km
B*
2.2275e-5
RAAN
158.4715°
Arg perigee
98.7670°
Mean anomaly
261.3454°
Rev number
22,119

§ Raw data

STARLINK-47871 53904U 22119U   26262.92842922  .00000376  00000+0  22275-4 0  99992 53904  53.1593 158.4715 0001074  98.7670 261.3454 15.34394206221196

JSON: /api/v1/satellites/53904 · /tle

For live sub-satellite position, see the globe view (requires WebGL).

§ Visibility from observer

Set your observer location to see the next 7 days of passes ≥ 10°. The values pass through the URL so the page stays shareable.

No JS? Fill the form by hand. The geolocation button needs JavaScript.